weather.gov     
National Weather Service

Regional Weather Roundup
NWS Homepage
This page is being discontinued on March 12, 2014.
The same data is available at this site. Please update your bookmarks.
Thank you, and we apologize for the inconvenience.
Please send an email to SR-SRH.Webmaster@noaa.gov with any concerns.


Current Version
Previous Version:    01  02  03  04  05  06  07  08  09  10  11  12  13  14  15  16  17  18  19  20  21  22  23  24  25  26  27  28  29  30  
   31  32  33  34  35  36  37  38  39  40  41  42  43  44  45  46  47  48  49  50  51  52  53  
[Printable]
267
ASUS43 KIND 312209
RWRIN

WEATHER ROUNDUP FOR INDIANA
NATIONAL WEATHER SERVICE INDIANAPOLIS IN
500 PM EST SAT JAN 31 2015

NOTE: "FAIR" INDICATES FEW OR NO CLOUDS BELOW 12,000 FEET WITH NO
SIGNIFICANT WEATHER AND/OR OBSTRUCTIONS TO VISIBILITY.

* - STATION DOES NOT REPORT WEATHER SUCH AS PRECIPITATION OR FOG.

+ - STATION NOT QUALITY CONTROLLED BY THE NATIONAL WEATHER SERVICE.
    USE DATA WITH CAUTION...ESPECIALLY DEWPOINT AND RELATIVE
    HUMIDITY OBSERVATIONS.

INZ001>003-010>013-019-020-312300-
NORTHWEST INDIANA

CITY           SKY/WX    TMP DP  RH WIND       PRES   REMARKS
GARY /AIRPORT/ CLOUDY    39  25  56 SW8       30.17F
KNOX *+        CLOUDY    36  18  48 SW8       30.18S
LA PORTE +     CLOUDY    37  29  72 SW8       30.18R
MICHIGAN CITY+ CLOUDY    36  23  60 CALM      30.18S
MONTICELLO +   CLOUDY    35  28  76 SW8       30.19F WCI  29
RENSSELAER +   CLOUDY    36  32  87 SW12      30.19S
VALPARAISO     CLOUDY    35  28  75 SW10      30.18R WCI  27

$$

LMZ046-743>745-312300-
SOUTHERN LAKE MICHIGAN

STATION/POSITION TIME  TEMP WIND        PRES
                       AIR  DIR/SP/G
                 (UTC) (F)  (DEG/KT/KT) (MB)
MICHIGAN CITY    2200   35  220/  2/  3   N/A

$$

INZ004-005-014>016-021>024-312300-
NORTH CENTRAL INDIANA

CITY           SKY/WX    TMP DP  RH WIND       PRES   REMARKS
ELKHART        CLOUDY    36  23  60 W6        30.18R
GOSHEN         CLOUDY    35  26  69 SW9       30.18R WCI  28
LOGANSPORT +   CLOUDY    34  30  86 SW8       30.21R WCI  27
PERU/GRISSOM   CLOUDY    35  28  73 SW8       30.19S WCI  29
ROCHESTER +    CLOUDY    37  30  75 SW7       30.19R
SOUTH BEND     CLOUDY    36  26  67 W6        30.19R
WARSAW +       CLOUDY    34  27  75 SW6       30.17F WCI  29

$$

INZ006>009-017-018-025>027-312300-
NORTHEAST INDIANA

CITY           SKY/WX    TMP DP  RH WIND       PRES   REMARKS
ANGOLA *+      CLEAR     36  25  64 W7        30.17S
AUBURN +       CLOUDY    36  23  60 SW6       30.19S
FORT WAYNE     CLOUDY    35  26  69 SW10      30.20S WCI  27
HUNTINGTON +   CLOUDY    35  23  61 SW6       30.19F WCI  30

$$

INZ028-029-035-036-043>045-051>053-312300-
WEST CENTRAL INDIANA

CITY           SKY/WX    TMP DP  RH WIND       PRES   REMARKS
CRAWFORDSVL +  CLOUDY    35  21  55 SW10      30.22S WCI  28
GREENCASTLE +  CLOUDY    37  21  52 SW6       30.24F
LAFAYETTE      CLOUDY    37  26  64 SW9       30.21S
TERRE HAUTE    CLOUDY    38  26  62 SW6       30.26S

$$

INZ030>032-037>040-046>048-054>057-064-065-312300-
CENTRAL INDIANA

CITY           SKY/WX    TMP DP  RH WIND       PRES   REMARKS
CP ATTERBURY + CLOUDY    39  23  52 SW12      30.26S
COLUMBUS       CLOUDY    39  18  41 SW9       30.27S
FRANKFORT +    CLOUDY    37  27  68 S10       30.23R
GREENWOOD *+   CLOUDY    39  21  48 SW5       30.25S
INDIANAPOLIS   CLOUDY    36  22  56 SW8       30.23F
-EAGLE CREEK   CLOUDY    38  23  55 SW8       30.22F
KOKOMO *+      CLOUDY    36  27  69 SW12      30.20S
MARION +       CLOUDY    35  25  67 SW8       30.20F WCI  29
MT COMFORT *+  CLOUDY    37  14  38 SW8       30.23F
SHELBYVILLE    CLOUDY    39  23  52 SW9       30.24F
ZIONSVILLE +   CLOUDY    37  23  56 SW10      30.22F

$$

INZ033-034-041-042-049-050-058-059-312300-
EAST CENTRAL INDIANA

CITY           SKY/WX    TMP DP  RH WIND       PRES   REMARKS
MUNCIE         CLOUDY    36  22  56 SW12      30.21S

$$

INZ060-061-067>069-081>083-085>088-312300-
SOUTHWEST INDIANA

CITY           SKY/WX    TMP DP  RH WIND       PRES   REMARKS
EVANSVILLE     CLOUDY    42  23  46 E7        30.27F
HUNTINGBURG *+ CLOUDY    39  25  56 S9        30.29F
WASHINGTON +   CLOUDY    39  23  53 SE5       30.26F

$$

INZ062-063-066-070>080-084-089>092-312300-
SOUTH CENTRAL AND SOUTHEAST INDIANA

CITY           SKY/WX    TMP DP  RH WIND       PRES   REMARKS
BLOOMINGTON    CLOUDY    38  23  55 S7        30.25F
NORTH VERNON + CLOUDY    39  23  52 SW6       30.28S
SEYMOUR +      CLOUDY    41  25  52 SW7       30.28S

$$





U.S. Dept. of Commerce
NOAA National Weather Service
1325 East West Highway
Silver Spring, MD 20910
E-mail: w-nws.webmaster@noaa.gov
Page last modified: May 16, 2007
NATIONAL WEATHER SERVICE: for Safety, for Work, for Fun - FOR LIFE